Skip Navigation Links
NOAA logo - Click to go to the NOAA homepage
NOAA's National Weather Service
Alaska Aviation Weather Unit
  NWS logo - Click to go to the NWS homepage
Left Navbar Graphic     03 AKDT = 11 GMT

   
NOAA is celebrating 200 years of science, service, and stewardship. Visit the NOAA 200th celebration Web site to learn more.
USA.gov is the U.S. Government's official Web portal to all Federal, state and local government Web resources and services.
Facebook
NWS on Facebook

Important Change Regarding the AAWU Web Presence

 

Over the last several months, the AAWU has been working to navigate its webpages to a nationally supported server. Security, as well as other needs, have necessitated the change.  We have been given an extension for the site changeover while we diligently work at addressing feedback received. As of July 14, 2017, aawu.arh.noaa.gov will be discontinued. The new AAWU web address is weather.gov/aawu. It is now live and will run in-parallel with the old site until it is discontinued on July 14, 2017. Please continue to send any feedback or questions regarding the new webpages to nws.ar.aawu.webauthors@noaa.gov.  Thank you for your patience during this time of transition.
AAWU Home :: Display TAF Add Bookmark
TAF PAGA 231139Z 2312/2412  VRB03KT P6SM BCFG OVC060
     FM231900 06004KT P6SM VCSH BKN050
     FM240800 02004KT P6SM -RA SCT025 BKN035 OVC080=

6510
FTAK31 PAFA 231139
TAFATA
TAF
METAR PAGA 230556Z AUTO 00000KT 10SM BKN041 OVC050 09/06 A2976=

METAR PAGA 230656Z AUTO 00000KT 10SM BKN043 OVC060 09/06 A2976=

METAR PAGA 230756Z AUTO 00000KT 10SM BKN045 OVC055 09/05 A2975=

METAR PAGA 230856Z AUTO 00000KT 10SM BKN041 OVC060 08/05 A2975=

METAR PAGA 230956Z AUTO 23003KT 10SM FEW041 OVC055 08/06 A2975=

METAR PAGA 231056Z AUTO 00000KT 10SM OVC060 07/05 A2974=


NOAA's National Weather Service
Alaska Aviation Weather Unit
6930 Sand Lake Road
Anchorage, AK 99502-1845
Disclaimer
Credits
Glossary
Privacy Policy
About Us
Career Opportunities
Contact AAWU Internet Services Site last modified: April, 17th 2012